WZZ126J EDLW-EPKT

Flight info

Callsign WZZ126J
Flight time 1h 14m
Altitude 19000
Route NUDGO2U NUDGO Z858 ESADU/N0424F350 DCT WRB DCT NOMKA DCT LASIS DCT GODLO T714 MOFKE
Aircraft A21N/M-SDE1E2E3FGIJ1J4RWXY/LB1

Departure

Time 2026-05-04 08:28
Airport Dortmund Airport (EDLW)

Arrival

Time 2026-05-04 09:43
Airport Katowice Wojciech Korfanty International Airport (EPKT)
Time Latitude Longitude Altitude Speed Heading
2026-05-04 07:56 51.51601 7.61344 440 ft 0 kts 332°
2026-05-04 08:24 51.51621 7.61328 429 ft 4 kts 332°
2026-05-04 08:24 51.51655 7.61312 430 ft 6 kts
2026-05-04 08:24 51.51694 7.61369 432 ft 9 kts 60°
2026-05-04 08:24 51.51729 7.61470 426 ft 12 kts 61°
2026-05-04 08:25 51.51773 7.61597 429 ft 14 kts 61°
2026-05-04 08:25 51.51816 7.61723 416 ft 12 kts 60°
2026-05-04 08:25 51.51866 7.61859 414 ft 16 kts 60°
2026-05-04 08:25 51.51921 7.62015 419 ft 17 kts 60°
2026-05-04 08:26 51.51980 7.62185 416 ft 18 kts 60°
2026-05-04 08:27 51.52278 7.62492 415 ft 30 kts 238°
2026-05-04 08:28 51.52036 7.61803 416 ft 110 kts 240°
2026-05-04 08:28 51.51563 7.60446 657 ft 153 kts 239°
2026-05-04 08:28 51.51048 7.58934 1463 ft 155 kts 240°
2026-05-04 08:28 51.50503 7.57350 2176 ft 171 kts 239°
2026-05-04 08:29 51.49868 7.55580 2648 ft 199 kts 239°
2026-05-04 08:29 51.49121 7.53501 3135 ft 229 kts 239°
2026-05-04 08:29 51.48293 7.51194 3714 ft 250 kts 239°
2026-05-04 08:31 51.38754 7.53969 9699 ft 297 kts 114°
2026-05-04 08:33 51.39966 7.80192 14206 ft 361 kts 88°
2026-05-04 08:33 51.40150 7.84226 14913 ft 365 kts 88°
2026-05-04 08:35 51.41419 8.13692 19576 ft 392 kts 89°
2026-05-04 08:35 51.41583 8.18016 20113 ft 396 kts 91°
2026-05-04 08:35 51.41568 8.22440 20679 ft 399 kts 94°
2026-05-04 08:35 51.41522 8.26952 21237 ft 403 kts 94°
2026-05-04 08:37 51.41237 8.54669 24337 ft 426 kts 94°
2026-05-04 08:37 51.41181 8.59435 24794 ft 428 kts 94°
2026-05-04 08:37 51.41123 8.64222 25245 ft 431 kts 94°
2026-05-04 08:38 51.41064 8.69034 25692 ft 434 kts 94°
2026-05-04 08:38 51.41097 8.73889 26120 ft 439 kts 87°
2026-05-04 08:38 51.41766 8.78696 26530 ft 446 kts 71°
2026-05-04 08:40 51.50204 9.11434 29323 ft 462 kts 82°
2026-05-04 08:40 51.50421 9.16388 29655 ft 460 kts 94°
2026-05-04 08:40 51.50238 9.21503 29997 ft 462 kts 97°
2026-05-04 08:41 51.50022 9.26490 30291 ft 465 kts 97°
2026-05-04 08:41 51.49805 9.31790 30599 ft 467 kts 96°
2026-05-04 08:41 51.49609 9.36837 30882 ft 469 kts 96°
2026-05-04 08:41 51.49400 9.42207 31191 ft 471 kts 96°
2026-05-04 08:42 51.49206 9.47276 31487 ft 472 kts 96°
2026-05-04 08:42 51.49000 9.52668 31863 ft 472 kts 97°
2026-05-04 08:42 51.48792 9.57888 32219 ft 471 kts 97°
2026-05-04 08:42 51.48584 9.63125 32572 ft 471 kts 97°
2026-05-04 08:43 51.48375 9.68324 32935 ft 469 kts 97°
2026-05-04 08:43 51.48165 9.73545 33293 ft 468 kts 97°
2026-05-04 08:43 51.47953 9.78750 33621 ft 468 kts 97°
2026-05-04 08:43 51.47735 9.83937 33937 ft 467 kts 97°
2026-05-04 08:44 51.47515 9.89117 34201 ft 467 kts 98°
2026-05-04 08:44 51.47293 9.94277 34437 ft 467 kts 98°
2026-05-04 08:46 51.45688 10.30259 35017 ft 464 kts 97°
2026-05-04 08:46 51.45215 10.40685 35012 ft 464 kts 97°
2026-05-04 08:47 51.44778 10.50970 35009 ft 465 kts 94°
2026-05-04 08:47 51.44850 10.61278 34993 ft 466 kts 92°
2026-05-04 08:48 51.44947 10.71609 35010 ft 465 kts 92°
2026-05-04 08:48 51.45026 10.81921 35007 ft 465 kts 92°
2026-05-04 08:49 51.45094 10.92208 35006 ft 465 kts 92°
2026-05-04 08:50 51.45269 11.28220 35010 ft 463 kts 92°
2026-05-04 08:51 51.45297 11.38489 35007 ft 463 kts 92°
2026-05-04 08:51 51.45316 11.48790 35006 ft 463 kts 92°
2026-05-04 08:52 51.45328 11.59095 34995 ft 463 kts 92°
2026-05-04 08:52 51.45327 11.69330 35006 ft 462 kts 93°
2026-05-04 08:54 51.45243 12.10301 35005 ft 463 kts 93°
2026-05-04 08:55 51.45200 12.20644 35023 ft 464 kts 94°
2026-05-04 08:55 51.45146 12.30992 35024 ft 464 kts 94°
2026-05-04 09:01 51.44041 13.39521 35005 ft 464 kts 94°
2026-05-04 09:01 51.43881 13.49858 35005 ft 464 kts 94°
2026-05-04 09:02 51.43710 13.60198 34994 ft 464 kts 93°
2026-05-04 09:02 51.43533 13.70462 35003 ft 464 kts 94°
2026-05-04 09:03 51.43351 13.80802 35015 ft 464 kts 94°
2026-05-04 09:03 51.43162 13.91145 35016 ft 464 kts 94°
2026-05-04 09:04 51.42959 14.01470 35022 ft 464 kts 94°
2026-05-04 09:04 51.42741 14.11807 35009 ft 464 kts 94°
2026-05-04 09:05 51.42514 14.22147 35006 ft 465 kts 94°
2026-05-04 09:05 51.42289 14.32514 35012 ft 466 kts 94°
2026-05-04 09:06 51.42045 14.42885 35012 ft 466 kts 94°
2026-05-04 09:08 51.41002 14.84226 35015 ft 464 kts 94°
2026-05-04 09:08 51.40621 14.94525 34996 ft 462 kts 101°
2026-05-04 09:08 51.39865 14.99489 34995 ft 458 kts 112°
2026-05-04 09:09 51.38727 15.04173 35008 ft 456 kts 115°
2026-05-04 09:09 51.36266 15.13593 35006 ft 456 kts 115°
2026-05-04 09:10 51.33875 15.22921 34997 ft 456 kts 115°
2026-05-04 09:10 51.31465 15.32309 35004 ft 456 kts 115°
2026-05-04 09:11 51.29055 15.41676 35010 ft 456 kts 115°
2026-05-04 09:11 51.26640 15.51046 34992 ft 455 kts 115°
2026-05-04 09:12 51.24231 15.60383 35001 ft 454 kts 115°
2026-05-04 09:14 51.14892 15.96045 35007 ft 453 kts 115°
2026-05-04 09:14 51.12462 16.05240 35008 ft 453 kts 115°
2026-05-04 09:15 51.10010 16.14480 35009 ft 453 kts 116°
2026-05-04 09:15 51.07549 16.23717 35008 ft 453 kts 116°
2026-05-04 09:17 50.96466 16.65168 35012 ft 453 kts 115°
2026-05-04 09:18 50.94018 16.74369 35007 ft 452 kts 115°
2026-05-04 09:18 50.91586 16.83467 34694 ft 443 kts 115°
2026-05-04 09:19 50.90393 16.87924 34416 ft 439 kts 115°
2026-05-04 09:19 50.89195 16.92372 34163 ft 437 kts 115°
2026-05-04 09:19 50.88004 16.96786 33916 ft 435 kts 115°
2026-05-04 09:19 50.86814 17.01181 33635 ft 433 kts 115°
2026-05-04 09:20 50.85631 17.05550 33359 ft 431 kts 115°
2026-05-04 09:20 50.84456 17.09901 33092 ft 429 kts 115°
2026-05-04 09:20 50.83285 17.14232 32777 ft 427 kts 115°
2026-05-04 09:20 50.82113 17.18518 32316 ft 423 kts 115°
2026-05-04 09:21 50.80943 17.22755 31794 ft 420 kts 116°
2026-05-04 09:21 50.79775 17.26973 31262 ft 418 kts 116°
2026-05-04 09:21 50.78610 17.31175 30737 ft 416 kts 116°
2026-05-04 09:21 50.77461 17.35305 30261 ft 414 kts 116°
2026-05-04 09:22 50.76304 17.39455 29692 ft 412 kts 116°
2026-05-04 09:22 50.75152 17.43584 29127 ft 410 kts 116°
2026-05-04 09:22 50.74011 17.47675 28598 ft 406 kts 116°
2026-05-04 09:22 50.72873 17.51751 28101 ft 404 kts 115°
2026-05-04 09:23 50.71765 17.55792 27613 ft 400 kts 115°
2026-05-04 09:23 50.70671 17.59815 27122 ft 397 kts 115°
2026-05-04 09:23 50.69586 17.63805 26627 ft 395 kts 115°
2026-05-04 09:23 50.68500 17.67765 26138 ft 392 kts 115°
2026-05-04 09:25 50.60985 17.94812 22787 ft 379 kts 117°
2026-05-04 09:25 50.59790 17.98481 22294 ft 375 kts 120°
2026-05-04 09:26 50.58767 18.02244 21792 ft 375 kts 107°
2026-05-04 09:26 50.58431 18.06304 21321 ft 375 kts 95°
2026-05-04 09:26 50.58333 18.10383 20850 ft 372 kts 94°
2026-05-04 09:26 50.58248 18.14446 20398 ft 370 kts 94°
2026-05-04 09:27 50.58150 18.18466 19960 ft 367 kts 94°
2026-05-04 09:27 50.58040 18.22463 19521 ft 365 kts 95°
2026-05-04 09:27 50.57922 18.26445 19088 ft 363 kts 95°
2026-05-04 09:27 50.57800 18.30407 18660 ft 362 kts 95°
2026-05-04 09:28 50.57679 18.34354 18241 ft 361 kts 95°
2026-05-04 09:28 50.57555 18.38286 17778 ft 360 kts 95°
2026-05-04 09:28 50.57429 18.42219 17334 ft 359 kts 95°
2026-05-04 09:28 50.57301 18.46137 16904 ft 358 kts 96°
2026-05-04 09:29 50.57158 18.50044 16500 ft 357 kts 96°
2026-05-04 09:29 50.57013 18.53885 16128 ft 356 kts 96°
2026-05-04 09:29 50.56867 18.57734 15750 ft 349 kts 96°
2026-05-04 09:29 50.56724 18.61512 15367 ft 343 kts 96°
2026-05-04 09:30 50.56581 18.65265 14993 ft 337 kts 96°
2026-05-04 09:30 50.56445 18.68864 14618 ft 332 kts 96°
2026-05-04 09:30 50.56336 18.72464 14238 ft 328 kts 93°
2026-05-04 09:30 50.56354 18.76057 13887 ft 330 kts 92°
2026-05-04 09:31 50.56395 18.79671 13477 ft 331 kts 91°
2026-05-04 09:31 50.56433 18.83293 13085 ft 331 kts 92°
2026-05-04 09:31 50.56462 18.86902 12702 ft 332 kts 92°
2026-05-04 09:31 50.56493 18.90535 12334 ft 332 kts 92°
2026-05-04 09:32 50.56520 18.94166 11928 ft 331 kts 91°
2026-05-04 09:32 50.56549 18.97751 11533 ft 325 kts 92°
2026-05-04 09:34 50.56427 19.21334 8894 ft 300 kts 93°
2026-05-04 09:34 50.56405 19.24599 8518 ft 299 kts 92°
2026-05-04 09:34 50.56383 19.27872 8176 ft 298 kts 92°
2026-05-04 09:34 50.56362 19.31090 7993 ft 287 kts 92°
2026-05-04 09:35 50.56343 19.34127 8020 ft 267 kts 92°
2026-05-04 09:35 50.56325 19.36944 8090 ft 256 kts 93°
2026-05-04 09:35 50.56304 19.39753 8063 ft 257 kts 93°
2026-05-04 09:35 50.56116 19.42517 7817 ft 250 kts 112°
2026-05-04 09:37 50.48109 19.41416 5256 ft 207 kts 250°
2026-05-04 09:37 50.47735 19.39270 4951 ft 201 kts 258°
2026-05-04 09:38 50.47572 19.37130 4564 ft 194 kts 264°
2026-05-04 09:38 50.47539 19.35068 4138 ft 184 kts 268°
2026-05-04 09:38 50.47541 19.33153 3913 ft 168 kts 266°
2026-05-04 09:38 50.47545 19.31387 3679 ft 157 kts 265°
2026-05-04 09:39 50.47549 19.29732 3467 ft 143 kts 265°
2026-05-04 09:39 50.47551 19.28221 3297 ft 142 kts 264°
2026-05-04 09:39 50.47555 19.26635 3113 ft 147 kts 265°
2026-05-04 09:39 50.47559 19.25108 2944 ft 134 kts 264°
2026-05-04 09:40 50.47563 19.23684 2729 ft 130 kts 265°
2026-05-04 09:40 50.47566 19.22271 2553 ft 131 kts 266°
2026-05-04 09:40 50.47569 19.20855 2378 ft 130 kts 267°
2026-05-04 09:40 50.47573 19.19441 2194 ft 129 kts 266°
2026-05-04 09:41 50.47576 19.18027 2029 ft 130 kts 267°
2026-05-04 09:42 50.47596 19.08609 1004 ft 58 kts 270°
2026-05-04 09:43 50.47597 19.08295 1002 ft 23 kts 270°
2026-05-04 09:43 50.47598 19.08029 1002 ft 25 kts 270°
2026-05-04 09:43 50.47601 19.07745 1005 ft 27 kts 270°
2026-05-04 09:43 50.47602 19.07443 1006 ft 29 kts 270°
2026-05-04 09:44 50.47576 19.07129 1007 ft 30 kts 246°
2026-05-04 09:44 50.47526 19.06960 1004 ft 6 kts 239°
2026-05-04 09:44 50.47500 19.06895 1004 ft 8 kts 243°
2026-05-04 09:46 50.47235 19.07279 1004 ft 1 kts 91°
2026-05-04 09:46 50.47236 19.07302 1004 ft 3 kts 90°
2026-05-04 09:46 50.47219 19.07339 1004 ft 6 kts 158°
2026-05-04 09:47 50.47197 19.07344 1004 ft 1 kts 178°
2026-05-04 09:47 50.47185 19.07344 1004 ft 0 kts 183°
2026-05-04 09:49 50.47184 19.07344 1004 ft 0 kts 182°